Regional Weather Roundup
Issued by NWS

Home | Current Version | Previous Version | Graphics & Text | Print | Product List | Glossary On
Versions: 1 2 3 4 5 6 7 8 9 10 11 12 13 14 15 16 17 18 19 20 21 22 23 24 25 26 27 28 29 30 31 32 33 34 35 36 37 38 39 40 41 42 43 44 45 46 47 48 49 50
000
ASUS43 KFSD 200910
RWRSD

WEATHER ROUNDUP FOR SOUTH DAKOTA
NATIONAL WEATHER SERVICE SIOUX FALLS SD
400 AM CDT WED SEP 20 2017

NOTE: "FAIR" INDICATES FEW OR NO CLOUDS BELOW 12,000 FEET WITH NO
SIGNIFICANT WEATHER AND/OR OBSTRUCTIONS TO VISIBILITY.


SDZ001>005-009-010-012>017-201000-
NORTHWEST AND NORTH CENTRAL SOUTH DAKOTA

CITY           SKY/WX    TMP DP  RH WIND       PRES   REMARKS
BUFFALO          N/A     40  38  93 W12       29.63F
MOBRIDGE       CLEAR     48  44  86 NW8       29.67R
$$

SDZ012>016-024>037-041>051-057-063-072>074-201000-
SOUTHWEST AND SOUTH CENTRAL SOUTH DAKOTA

CITY           SKY/WX    TMP DP  RH WIND       PRES   REMARKS
RAPID CTY ARPT NOT AVBL
PIERRE         MOCLDY    51  44  77 N8        29.73R
CUSTER         CLEAR     33  29  85 SW6       29.81R WCI  28
ELLSWORTH AFB  CLEAR     39  36  87 SW7       29.75S
PHILIP         CLEAR     43  42  97 W6        29.75R
SPEARFISH      FAIR      41  30  65 W6        29.76R
WINNER         FAIR      52  48  86 SW6       29.79R
$$

SDZ004>011-016>023-039-040-201000-
NORTHEAST SOUTH DAKOTA

CITY           SKY/WX    TMP DP  RH WIND       PRES   REMARKS
ABERDEEN       CLOUDY    54  50  86 W10       29.64S
WATERTOWN      MOCLDY    57  55  93 W18G28    29.65R
BROOKINGS      CLOUDY    59  54  83 W10       29.66R
SISSETON         N/A     61  57  87 W13       29.60R
$$

SDZ017-020-022-023-036>040-048>070-201000-
SOUTHEAST SOUTH DAKOTA

CITY           SKY/WX    TMP DP  RH WIND       PRES   REMARKS
SIOUX FALLS    CLOUDY    63  61  93 W5        29.68R
HURON          MOCLDY    53  50  89 W9        29.70R
CHAMBERLAIN    PTCLDY    53  52  97 SW3       29.76R
MITCHELL       PTCLDY    57  53  86 NW10      29.72R
YANKTON        CLOUDY    61  57  87 SW5       29.71R
$$

ABBREVIATIONS USED IN REMARKS
   TC - TEMPERATURE IN CELSIUS
  WCI - WIND CHILL INDEX
   HX - HEAT INDEX
  VSB - VISIBILITY





USA.gov is the U.S. government's official web portal to all federal, state and local government web resources and services.